• In Deutschland
  • Länderverzeichnis
  • Für 7 Tage
  • Wassertemperatur
  • Satellitenkarten
  • Wetterkarte
  • Widgets
  • user-avatar
    Anmelden

    Stündliche Wetter Waldkraiburg

    Heute, 20 Oktober, Freitag

    Zeit Temperatur Niederschläge Wind Luftdruck Luftfeuchtigkeit
    00:00 +10°C° 0 mm 1 m/S 723 mmHg 76%
    01:00 +10°C° 0 mm 1 m/S 723 mmHg 74%
    02:00 +10°C° 0 mm 1 m/S 723 mmHg 73%
    03:00 +9°C° 0 mm 1 m/S 723 mmHg 71%
    04:00 +9°C° 0 mm 1 m/S 723 mmHg 69%
    05:00 +9°C° 0 mm 1 m/S 723 mmHg 68%
    06:00 +9°C° 0 mm 1 m/S 723 mmHg 67%
    07:00 +9°C° 0 mm 1 m/S 723 mmHg 66%
    08:00 +11°C° 0 mm 1 m/S 724 mmHg 62%
    09:00 +14°C° 0 mm 1 m/S 724 mmHg 58%
    10:00 +16°C° 0 mm 1 m/S 724 mmHg 54%
    11:00 +17°C° 0 mm 2 m/S 724 mmHg 54%
    12:00 +18°C° 0 mm 2 m/S 724 mmHg 53%
    13:00 +20°C° 0 mm 2 m/S 724 mmHg 53%
    14:00 +19°C° 0 mm 2 m/S 725 mmHg 58%
    15:00 +19°C° 0 mm 1 m/S 725 mmHg 64%
    16:00 +19°C° 0 mm 1 m/S 725 mmHg 69%
    17:00 +16°C° 0 mm 1 m/S 725 mmHg 73%
    18:00 +15°C° 0 mm 1 m/S 725 mmHg 77%
    19:00 +13°C° 0 mm 1 m/S 725 mmHg 80%
    20:00 +13°C° 0 mm 2 m/S 725 mmHg 81%
    21:00 +12°C° 0 mm 2 m/S 726 mmHg 82%
    22:00 +12°C° 0 mm 2 m/S 726 mmHg 82%
    23:00 +12°C° 0 mm 2 m/S 726 mmHg 81%

    Morgen, 21 Oktober, Samstag

    Zeit Temperatur Niederschläge Wind Luftdruck Luftfeuchtigkeit
    00:00 +12°C° 0 mm 2 m/S 726 mmHg 80%
    01:00 +12°C° 0 mm 1 m/S 726 mmHg 79%
    02:00 +12°C° 0 mm 1 m/S 726 mmHg 78%
    03:00 +12°C° 0 mm 1 m/S 726 mmHg 77%
    04:00 +12°C° 0 mm 1 m/S 725 mmHg 76%
    05:00 +12°C° 0 mm 1 m/S 725 mmHg 75%
    06:00 +12°C° 0 mm 2 m/S 725 mmHg 74%
    07:00 +12°C° 0 mm 2 m/S 725 mmHg 73%
    08:00 +14°C° 0 mm 2 m/S 725 mmHg 69%
    09:00 +15°C° 0 mm 2 m/S 725 mmHg 66%
    10:00 +17°C° 0 mm 2 m/S 725 mmHg 63%
    11:00 +18°C° 0 mm 2 m/S 725 mmHg 60%
    12:00 +19°C° 0 mm 2 m/S 725 mmHg 58%
    13:00 +20°C° 0 mm 2 m/S 725 mmHg 56%
    14:00 +20°C° 0 mm 2 m/S 724 mmHg 61%
    15:00 +20°C° 0 mm 1 m/S 724 mmHg 65%
    16:00 +20°C° 0 mm 1 m/S 724 mmHg 70%
    17:00 +18°C° 0 mm 1 m/S 724 mmHg 73%
    18:00 +16°C° 0 mm 1 m/S 724 mmHg 76%
    19:00 +14°C° 0 mm 1 m/S 724 mmHg 79%
    20:00 +14°C° 0 mm 1 m/S 724 mmHg 80%
    21:00 +14°C° 0 mm 2 m/S 724 mmHg 81%
    22:00 +13°C° 0 mm 2 m/S 724 mmHg 81%
    23:00 +13°C° 0,2 mm 2 m/S 725 mmHg 84%

    übermorgen, 22 Oktober, Sonntag

    Zeit Temperatur Niederschläge Wind Luftdruck Luftfeuchtigkeit
    00:00 +12°C° 0,2 mm 3 m/S 725 mmHg 86%
    01:00 +11°C° 0,2 mm 4 m/S 725 mmHg 88%
    02:00 +11°C° 0,8 mm 3 m/S 725 mmHg 90%
    03:00 +10°C° 0,8 mm 3 m/S 725 mmHg 92%
    04:00 +10°C° 0,8 mm 3 m/S 725 mmHg 94%
    05:00 +9°C° 0,4 mm 2 m/S 725 mmHg 94%
    06:00 +9°C° 0,4 mm 2 m/S 725 mmHg 94%
    07:00 +9°C° 0,4 mm 2 m/S 725 mmHg 94%
    08:00 +9°C° 0,5 mm 2 m/S 725 mmHg 93%
    09:00 +9°C° 0,5 mm 3 m/S 725 mmHg 92%
    10:00 +9°C° 0,5 mm 3 m/S 725 mmHg 91%
    11:00 +10°C° 0,6 mm 3 m/S 725 mmHg 89%
    12:00 +10°C° 0,6 mm 3 m/S 725 mmHg 88%
    13:00 +10°C° 0,6 mm 3 m/S 724 mmHg 86%
    14:00 +9°C° 0,6 mm 3 m/S 724 mmHg 87%
    15:00 +9°C° 0,6 mm 3 m/S 724 mmHg 88%
    16:00 +8°C° 0,6 mm 2 m/S 724 mmHg 88%
    17:00 +8°C° 0,3 mm 2 m/S 725 mmHg 89%
    18:00 +7°C° 0,3 mm 2 m/S 725 mmHg 90%
    19:00 +7°C° 0,3 mm 2 m/S 725 mmHg 92%
    20:00 +7°C° 0,3 mm 2 m/S 725 mmHg 92%
    21:00 +7°C° 0,3 mm 2 m/S 725 mmHg 92%
    22:00 +6°C° 0,3 mm 2 m/S 725 mmHg 92%
    23:00 +5°C° 0,1 mm 3 m/S 725 mmHg 92%

    23 Oktober, Montag

    Zeit Temperatur Niederschläge Wind Luftdruck Luftfeuchtigkeit
    00:00 +5°C° 0,1 mm 3 m/S 725 mmHg 92%
    01:00 +5°C° 0,1 mm 3 m/S 725 mmHg 93%
    02:00 +5°C° 0,1 mm 3 m/S 725 mmHg 93%
    03:00 +4°C° 0,1 mm 3 m/S 724 mmHg 94%
    04:00 +5°C° 0,1 mm 2 m/S 724 mmHg 94%
    05:00 +5°C° 0,2 mm 2 m/S 724 mmHg 94%
    06:00 +5°C° 0,2 mm 2 m/S 725 mmHg 94%
    07:00 +6°C° 0,2 mm 2 m/S 725 mmHg 94%
    08:00 +5°C° 0,2 mm 3 m/S 725 mmHg 92%
    09:00 +7°C° 0,2 mm 3 m/S 725 mmHg 91%
    10:00 +7°C° 0,2 mm 3 m/S 725 mmHg 89%
    11:00 +6°C° 0,3 mm 4 m/S 725 mmHg 89%
    12:00 +7°C° 0,3 mm 4 m/S 725 mmHg 89%
    13:00 +7°C° 0,3 mm 4 m/S 725 mmHg 88%
    14:00 +7°C° 0,6 mm 4 m/S 725 mmHg 89%
    15:00 +7°C° 0,6 mm 4 m/S 725 mmHg 90%
    16:00 +7°C° 0,6 mm 4 m/S 725 mmHg 90%
    17:00 +8°C° 0,5 mm 3 m/S 726 mmHg 92%
    18:00 +8°C° 0,5 mm 3 m/S 726 mmHg 93%
    19:00 +7°C° 0,5 mm 3 m/S 726 mmHg 94%
    20:00 +7°C° 0,2 mm 3 m/S 727 mmHg 94%
    21:00 +7°C° 0,2 mm 3 m/S 727 mmHg 95%
    22:00 +7°C° 0,2 mm 3 m/S 727 mmHg 95%
    23:00 +7°C° 0,2 mm 3 m/S 727 mmHg 95%

    24 Oktober, Dienstag

    Zeit Temperatur Niederschläge Wind Luftdruck Luftfeuchtigkeit
    00:00 +7°C° 0,2 mm 3 m/S 727 mmHg 95%
    01:00 +7°C° 0,2 mm 3 m/S 727 mmHg 96%
    02:00 +7°C° 0,3 mm 2 m/S 727 mmHg 96%
    03:00 +7°C° 0,3 mm 2 m/S 727 mmHg 96%
    04:00 +8°C° 0,3 mm 2 m/S 727 mmHg 96%
    05:00 +8°C° 0,4 mm 2 m/S 727 mmHg 95%
    06:00 +8°C° 0,4 mm 2 m/S 727 mmHg 95%
    07:00 +8°C° 0,4 mm 2 m/S 727 mmHg 95%
    08:00 +8°C° 0,1 mm 2 m/S 728 mmHg 94%
    09:00 +9°C° 0,1 mm 2 m/S 728 mmHg 92%
    10:00 +9°C° 0,1 mm 2 m/S 728 mmHg 91%
    11:00 +10°C° 0 mm 2 m/S 728 mmHg 90%
    12:00 +10°C° 0 mm 2 m/S 728 mmHg 88%
    13:00 +12°C° 0 mm 2 m/S 728 mmHg 87%
    14:00 +12°C° 0 mm 2 m/S 728 mmHg 88%
    15:00 +12°C° 0 mm 1 m/S 728 mmHg 89%
    16:00 +12°C° 0 mm 1 m/S 728 mmHg 90%
    17:00 +11°C° 0,1 mm 1 m/S 729 mmHg 91%
    18:00 +11°C° 0,1 mm 1 m/S 729 mmHg 93%
    19:00 +11°C° 0,1 mm 1 m/S 730 mmHg 94%
    20:00 +11°C° 0,1 mm 1 m/S 730 mmHg 94%
    21:00 +11°C° 0,1 mm 1 m/S 730 mmHg 95%
    22:00 +11°C° 0,1 mm 1 m/S 730 mmHg 95%
    23:00 +11°C° 0,1 mm 1 m/S 730 mmHg 95%

    25 Oktober, Mittwoch

    Zeit Temperatur Niederschläge Wind Luftdruck Luftfeuchtigkeit
    00:00 +11°C° 0,1 mm 1 m/S 731 mmHg 95%
    01:00 +11°C° 0,1 mm 1 m/S 731 mmHg 95%
    02:00 +11°C° 0,1 mm 1 m/S 731 mmHg 96%
    03:00 +11°C° 0,1 mm 1 m/S 731 mmHg 96%
    04:00 +11°C° 0,1 mm 1 m/S 731 mmHg 96%
    05:00 +11°C° 0 mm 1 m/S 731 mmHg 96%
    06:00 +11°C° 0 mm 1 m/S 731 mmHg 96%
    07:00 +10°C° 0 mm 1 m/S 731 mmHg 95%
    08:00 +11°C° 0 mm 1 m/S 731 mmHg 93%
    09:00 +13°C° 0 mm 1 m/S 731 mmHg 91%
    10:00 +13°C° 0 mm 0 m/S 732 mmHg 88%
    11:00 +15°C° 0 mm 1 m/S 731 mmHg 84%
    12:00 +16°C° 0 mm 1 m/S 731 mmHg 80%
    13:00 +18°C° 0 mm 1 m/S 731 mmHg 76%
    14:00 +18°C° 0 mm 1 m/S 731 mmHg 78%
    15:00 +16°C° 0 mm 1 m/S 731 mmHg 80%
    16:00 +15°C° 0 mm 0 m/S 731 mmHg 82%
    17:00 +15°C° 0 mm 1 m/S 731 mmHg 86%
    18:00 +13°C° 0 mm 1 m/S 731 mmHg 89%
    19:00 +12°C° 0 mm 1 m/S 732 mmHg 93%
    20:00 +12°C° 0 mm 1 m/S 732 mmHg 93%
    21:00 +11°C° 0 mm 1 m/S 732 mmHg 94%
    22:00 +11°C° 0 mm 1 m/S 732 mmHg 94%
    23:00 +10°C° 0 mm 1 m/S 732 mmHg 93%
    Mehr zeigen